Location: Alfortville
(48.8058°N, 2.4204°E)
Time: 18:06:30
(UTC+00:00)

JY1SAT - Visible Passes

Search period start: 28 March 2023 00:00
Search period end: 07 April 2023 00:00
Orbit: 557 x 578 km, 97.6° (Epoch: 27 March)

Date Brightness Start Highest point End Pass type
(mag) Time Alt. Az. Time Alt. Az. Time Alt. Az.
28 Mar ? 19:50:47 18° ENE 19:50:54 18° ENE 19:53:40 10° NNE visible
28 Mar ? 21:26:50 36° NW 21:26:50 36° NW 21:29:34 10° NNW visible
29 Mar ? 19:51:46 19° ENE 19:51:58 19° ENE 19:54:47 10° NNE visible
29 Mar ? 21:27:50 37° NW 21:27:50 37° NW 21:30:39 10° NNW visible
30 Mar ? 19:52:45 19° ENE 19:53:03 19° ENE 19:55:54 10° NNE visible
30 Mar ? 21:28:49 38° WNW 21:28:49 38° WNW 21:31:43 10° NNW visible
31 Mar ? 19:53:44 19° ENE 19:54:05 19° ENE 19:57:00 10° NNE visible
31 Mar ? 21:29:47 38° WNW 21:29:47 38° WNW 21:32:47 10° NNW visible
01 Apr ? 19:54:41 20° ENE 19:55:09 20° ENE 19:58:05 10° NNE visible
01 Apr ? 21:30:45 38° WNW 21:30:45 38° WNW 21:33:49 10° NNW visible
02 Apr ? 19:55:38 20° ENE 19:56:10 20° ENE 19:59:10 10° NNE visible
02 Apr ? 21:31:42 39° WNW 21:31:42 39° WNW 21:34:51 10° NNW visible
03 Apr ? 19:56:34 20° ENE 19:57:12 21° ENE 20:00:14 10° NNE visible
03 Apr ? 21:32:38 39° WNW 21:32:38 39° WNW 21:35:53 10° NNW visible
04 Apr ? 19:57:30 20° E 19:58:12 21° ENE 20:01:17 10° NNE visible
04 Apr ? 21:33:34 39° WNW 21:33:34 39° WNW 21:36:53 10° NNW visible
05 Apr ? 19:58:25 20° E 19:59:12 22° ENE 20:02:19 10° NNE visible
05 Apr ? 21:34:29 38° W 21:34:29 38° W 21:37:53 10° NNW visible
06 Apr ? 19:59:19 21° E 20:00:11 22° ENE 20:03:20 10° NNE visible
06 Apr ? 21:35:23 38° W 21:35:23 38° W 21:38:52 10° NNW visible
